Time,TemperatureF,DewpointF,PressureIn,WindDirection,WindDirectionDegrees,WindSpeedMPH,WindSpeedGustMPH,Humidity,HourlyPrecipIn,Conditions,Clouds,dailyrainin,SoftwareType,DateUTC
2013-06-15 00:03:00,60.6,48.4,29.85,SE,135,0.0,5.4,64,0.00,,CLR,0.00,VWS V14.01,2013-06-15 07:03:00,
2013-06-15 00:09:00,60.6,48.4,29.85,SE,131,0.0,0.0,64,0.00,,CLR,0.00,VWS V14.01,2013-06-15 07:09:00,
2013-06-15 00:15:00,60.8,48.5,29.85,ESE,120,2.7,3.6,64,0.00,,CLR,0.00,VWS V14.01,2013-06-15 07:15:00,
2013-06-15 00:21:00,61.0,48.7,29.85,SE,135,3.6,5.8,64,0.00,,CLR,0.00,VWS V14.01,2013-06-15 07:21:00,
2013-06-15 00:26:00,61.0,48.3,29.85,SE,135,0.0,4.0,63,0.00,,CLR,0.00,VWS V14.01,2013-06-15 07:26:00,
2013-06-15 00:32:00,61.1,48.5,29.85,SE,128,3.1,4.0,63,0.00,,CLR,0.00,VWS V14.01,2013-06-15 07:32:00,
2013-06-15 00:37:00,61.1,48.0,29.85,SE,129,5.4,5.4,62,0.00,,BKN022,0.00,VWS V14.01,2013-06-15 07:37:00,
2013-06-15 00:42:00,61.5,48.4,29.85,SE,132,3.6,3.6,62,0.00,,BKN022,0.00,VWS V14.01,2013-06-15 07:42:00,
2013-06-15 00:47:00,61.5,47.9,29.85,SE,130,2.7,4.0,61,0.00,,BKN022,0.00,VWS V14.01,2013-06-15 07:47:00,
2013-06-15 00:53:00,61.5,47.9,29.85,SE,133,2.7,3.6,61,0.00,,BKN022,0.00,VWS V14.01,2013-06-15 07:53:00,
2013-06-15 00:58:00,61.5,47.5,29.85,SE,140,2.7,5.4,60,0.00,,BKN022,0.00,VWS V14.01,2013-06-15 07:58:00,
2013-06-15 01:04:00,61.7,47.7,29.85,ESE,123,2.2,5.4,60,0.00,,BKN022,0.00,VWS V14.01,2013-06-15 08:04:00,
2013-06-15 01:10:00,61.7,47.7,29.85,SE,141,2.2,5.8,60,0.00,,BKN022,0.00,VWS V14.01,2013-06-15 08:10:00,
2013-06-15 01:15:00,61.9,47.4,29.85,SE,143,3.6,5.8,59,0.00,,BKN022,0.00,VWS V14.01,2013-06-15 08:15:00,
2013-06-15 01:21:00,61.9,47.4,29.85,ENE,65,4.9,4.9,59,0.00,,BKN022,0.00,VWS V14.01,2013-06-15 08:21:00,
2013-06-15 01:27:00,61.9,47.4,29.85,SE,124,0.0,6.3,59,0.00,,BKN022,0.00,VWS V14.01,2013-06-15 08:27:00,
2013-06-15 01:32:00,61.9,46.9,29.85,SE,132,4.9,6.3,58,0.00,,BKN022,0.00,VWS V14.01,2013-06-15 08:32:00,
2013-06-15 01:37:00,61.9,46.9,29.85,SE,142,2.7,3.1,58,0.00,,OVC018,0.00,VWS V14.01,2013-06-15 08:37:00,
2013-06-15 01:42:00,61.9,46.9,29.85,SE,133,6.3,6.3,58,0.00,,OVC018,0.00,VWS V14.01,2013-06-15 08:42:00,
2013-06-15 01:48:00,61.9,46.9,29.85,SE,144,2.2,4.9,58,0.00,,OVC018,0.00,VWS V14.01,2013-06-15 08:48:00,
2013-06-15 01:53:00,61.9,46.9,29.85,SE,128,5.8,5.8,58,0.00,,OVC018,0.00,VWS V14.01,2013-06-15 08:53:00,
2013-06-15 01:59:00,61.9,46.9,29.85,SE,126,4.0,4.0,58,0.00,,OVC018,0.00,VWS V14.01,2013-06-15 08:59:00,
2013-06-15 02:05:00,62.0,46.7,29.85,SE,135,2.7,4.0,57,0.00,,OVC018,0.00,VWS V14.01,2013-06-15 09:05:00,
2013-06-15 02:10:00,62.0,46.7,29.85,SE,124,3.6,3.6,57,0.00,,OVC018,0.00,VWS V14.01,2013-06-15 09:10:00,
2013-06-15 02:15:00,62.0,47.1,29.85,SE,131,4.9,4.9,58,0.00,,OVC018,0.00,VWS V14.01,2013-06-15 09:15:00,
2013-06-15 02:20:00,62.0,47.1,29.85,SE,131,2.2,5.8,58,0.00,,OVC018,0.00,VWS V14.01,2013-06-15 09:20:00,
2013-06-15 02:25:00,62.0,47.1,29.85,SSE,147,4.0,4.0,58,0.00,,OVC018,0.00,VWS V14.01,2013-06-15 09:25:00,
2013-06-15 02:31:00,62.0,47.1,29.85,SE,125,3.6,3.6,58,0.00,,OVC018,0.00,VWS V14.01,2013-06-15 09:31:00,
2013-06-15 02:36:00,61.9,46.9,29.85,SE,140,5.4,6.3,58,0.00,,OVC018,0.00,VWS V14.01,2013-06-15 09:36:00,
2013-06-15 02:41:00,61.9,46.9,29.85,SE,138,5.8,5.8,58,0.00,,OVC018,0.00,VWS V14.01,2013-06-15 09:41:00,
2013-06-15 02:47:00,61.9,46.5,29.85,SE,145,7.6,8.3,57,0.00,,OVC018,0.00,VWS V14.01,2013-06-15 09:47:00,
2013-06-15 02:52:00,61.9,46.9,29.85,SE,137,5.4,5.4,58,0.00,,OVC018,0.00,VWS V14.01,2013-06-15 09:52:00,
2013-06-15 02:58:00,61.9,46.9,29.85,SE,129,4.0,4.9,58,0.00,,OVC018,0.00,VWS V14.01,2013-06-15 09:58:00,
2013-06-15 03:03:00,61.9,46.9,29.85,ESE,115,3.1,4.0,58,0.00,,OVC018,0.00,VWS V14.01,2013-06-15 10:03:00,
2013-06-15 03:08:00,62.0,47.1,29.85,East,80,5.8,5.8,58,0.00,,OVC018,0.00,VWS V14.01,2013-06-15 10:08:00,
2013-06-15 03:13:00,62.0,47.1,29.85,East,85,2.7,5.8,58,0.00,,OVC018,0.00,VWS V14.01,2013-06-15 10:13:00,
2013-06-15 03:19:00,62.0,47.1,29.85,East,89,4.0,4.0,58,0.00,,OVC018,0.00,VWS V14.01,2013-06-15 10:19:00,
2013-06-15 03:24:00,62.0,47.1,29.85,SE,127,0.0,3.1,58,0.00,,OVC018,0.00,VWS V14.01,2013-06-15 10:24:00,
2013-06-15 03:29:00,61.9,46.9,29.85,SE,127,0.0,4.0,58,0.00,,OVC018,0.00,VWS V14.01,2013-06-15 10:29:00,
2013-06-15 03:34:00,61.9,47.4,29.85,ESE,123,5.8,5.8,59,0.00,,OVC018,0.00,VWS V14.01,2013-06-15 10:34:00,
2013-06-15 03:40:00,61.9,47.4,29.85,East,98,3.6,3.6,59,0.00,,OVC014,0.00,VWS V14.01,2013-06-15 10:40:00,
2013-06-15 03:45:00,61.9,47.4,29.85,SE,126,0.0,2.7,59,0.00,,OVC014,0.00,VWS V14.01,2013-06-15 10:45:00,
2013-06-15 03:50:00,61.9,47.4,29.85,SE,131,3.1,4.0,59,0.00,,OVC014,0.00,VWS V14.01,2013-06-15 10:50:00,
2013-06-15 03:55:00,61.9,47.4,29.85,SE,131,4.0,4.9,59,0.00,,OVC014,0.00,VWS V14.01,2013-06-15 10:55:00,
2013-06-15 04:01:00,61.9,47.4,29.85,SE,138,0.0,0.0,59,0.00,,OVC014,0.00,VWS V14.01,2013-06-15 11:01:00,
2013-06-15 04:07:00,61.9,46.9,29.85,SE,137,2.7,5.8,58,0.00,,OVC014,0.00,VWS V14.01,2013-06-15 11:07:00,
2013-06-15 04:12:00,61.9,46.5,29.85,SE,135,5.4,5.4,57,0.00,,OVC014,0.00,VWS V14.01,2013-06-15 11:12:00,
2013-06-15 04:18:00,61.9,46.5,29.85,ESE,110,3.6,4.9,57,0.00,,OVC014,0.00,VWS V14.01,2013-06-15 11:18:00,
2013-06-15 04:23:00,61.9,46.5,29.85,ENE,71,2.2,4.0,57,0.00,,OVC014,0.00,VWS V14.01,2013-06-15 11:23:00,
2013-06-15 04:28:00,61.9,46.5,29.85,East,88,0.0,0.0,57,0.00,,OVC014,0.00,VWS V14.01,2013-06-15 11:28:00,
2013-06-15 04:33:00,62.0,46.7,29.85,East,91,0.0,3.6,57,0.00,,OVC014,0.00,VWS V14.01,2013-06-15 11:33:00,
2013-06-15 04:39:00,62.0,46.7,29.85,SE,130,2.7,3.6,57,0.00,,OVC014,0.00,VWS V14.01,2013-06-15 11:39:00,
2013-06-15 04:44:00,61.9,46.5,29.85,East,93,4.0,5.4,57,0.00,,OVC014,0.00,VWS V14.01,2013-06-15 11:44:00,
2013-06-15 04:49:00,61.9,46.5,29.85,SE,136,5.8,5.8,57,0.00,,OVC014,0.00,VWS V14.01,2013-06-15 11:49:00,
2013-06-15 04:55:00,61.9,46.5,29.85,ESE,120,3.1,7.2,57,0.00,,OVC014,0.00,VWS V14.01,2013-06-15 11:55:00,
2013-06-15 05:01:00,61.7,45.8,29.85,SE,125,3.6,4.0,56,0.00,,OVC014,0.00,VWS V14.01,2013-06-15 12:01:00,
2013-06-15 05:07:00,61.7,45.8,29.88,SE,141,0.0,2.7,56,0.00,,OVC014,0.00,VWS V14.01,2013-06-15 12:07:00,
2013-06-15 05:12:00,61.7,45.8,29.88,SSE,147,4.5,4.5,56,0.00,,OVC014,0.00,VWS V14.01,2013-06-15 12:12:00,
2013-06-15 05:18:00,61.7,45.8,29.88,SE,132,0.0,0.0,56,0.00,,OVC014,0.00,VWS V14.01,2013-06-15 12:18:00,
2013-06-15 05:23:00,61.7,45.8,29.88,SE,125,3.1,3.6,56,0.00,,OVC014,0.00,VWS V14.01,2013-06-15 12:23:00,
2013-06-15 05:29:00,61.7,45.8,29.88,ENE,73,3.6,3.6,56,0.00,,OVC014,0.00,VWS V14.01,2013-06-15 12:29:00,
2013-06-15 05:34:00,61.7,45.4,29.88,SE,135,0.0,0.0,55,0.00,,OVC014,0.00,VWS V14.01,2013-06-15 12:34:00,
2013-06-15 05:40:00,61.9,45.5,29.88,East,92,0.0,0.0,55,0.00,,OVC016,0.00,VWS V14.01,2013-06-15 12:40:00,
2013-06-15 05:46:00,61.9,46.5,29.88,ENE,77,2.7,2.7,57,0.00,,OVC016,0.00,VWS V14.01,2013-06-15 12:46:00,
2013-06-15 05:51:00,61.9,46.5,29.88,ESE,117,4.0,5.4,57,0.00,,OVC016,0.00,VWS V14.01,2013-06-15 12:51:00,
2013-06-15 05:57:00,61.7,45.8,29.88,SE,136,4.0,5.4,56,0.00,,OVC016,0.00,VWS V14.01,2013-06-15 12:57:00,
2013-06-15 06:02:00,61.7,45.8,29.88,SE,139,3.1,4.9,56,0.00,,OVC016,0.00,VWS V14.01,2013-06-15 13:02:00,
2013-06-15 06:08:00,61.7,45.8,29.88,East,87,3.1,5.8,56,0.00,,OVC016,0.00,VWS V14.01,2013-06-15 13:08:00,
2013-06-15 06:13:00,61.9,46.0,29.88,ENE,78,2.7,2.7,56,0.00,,OVC016,0.00,VWS V14.01,2013-06-15 13:13:00,
2013-06-15 06:18:00,61.9,46.0,29.88,NNE,31,4.0,5.8,56,0.00,,OVC016,0.00,VWS V14.01,2013-06-15 13:18:00,
2013-06-15 06:24:00,61.9,45.5,29.88,NNE,31,0.0,0.0,55,0.00,,OVC016,0.00,VWS V14.01,2013-06-15 13:24:00,
2013-06-15 06:29:00,61.9,45.5,29.88,SE,135,0.0,3.1,55,0.00,,OVC016,0.00,VWS V14.01,2013-06-15 13:29:00,
2013-06-15 06:34:00,61.9,46.0,29.88,SE,140,0.0,0.0,56,0.00,,OVC016,0.00,VWS V14.01,2013-06-15 13:34:00,
2013-06-15 06:39:00,61.9,46.0,29.88,ESE,114,3.1,3.1,56,0.00,,OVC016,0.00,VWS V14.01,2013-06-15 13:39:00,
2013-06-15 06:45:00,61.9,46.0,29.88,ESE,121,0.0,0.0,56,0.00,,OVC016,0.00,VWS V14.01,2013-06-15 13:45:00,
2013-06-15 06:50:00,61.9,45.5,29.88,ESE,121,2.2,3.6,55,0.00,,OVC016,0.00,VWS V14.01,2013-06-15 13:50:00,
2013-06-15 06:55:00,62.0,45.7,29.88,ESE,121,2.2,2.7,55,0.00,,OVC016,0.00,VWS V14.01,2013-06-15 13:55:00,
2013-06-15 07:00:00,62.0,45.7,29.88,ESE,123,0.0,3.1,55,0.00,,OVC016,0.00,VWS V14.01,2013-06-15 14:00:00,
2013-06-15 07:06:00,62.0,45.2,29.91,ESE,103,3.1,3.1,54,0.00,,OVC016,0.00,VWS V14.01,2013-06-15 14:06:00,
2013-06-15 07:11:00,62.2,45.4,29.91,East,80,4.0,4.0,54,0.00,,OVC016,0.00,VWS V14.01,2013-06-15 14:11:00,
2013-06-15 07:17:00,62.2,45.4,29.91,East,79,0.0,0.0,54,0.00,,OVC016,0.00,VWS V14.01,2013-06-15 14:17:00,
2013-06-15 07:22:00,62.4,45.5,29.91,East,79,0.0,0.0,54,0.00,,OVC016,0.00,VWS V14.01,2013-06-15 14:22:00,
2013-06-15 07:28:00,62.4,45.1,29.91,East,79,0.0,0.0,53,0.00,,OVC016,0.00,VWS V14.01,2013-06-15 14:28:00,
2013-06-15 07:33:00,62.4,45.1,29.91,East,79,0.0,0.0,53,0.00,,OVC016,0.00,VWS V14.01,2013-06-15 14:33:00,
2013-06-15 07:38:00,62.6,45.2,29.91,East,79,0.0,0.0,53,0.00,,OVC016,0.00,VWS V14.01,2013-06-15 14:38:00,
2013-06-15 07:44:00,62.6,45.2,29.91,SE,134,3.1,4.9,53,0.00,,OVC016,0.00,VWS V14.01,2013-06-15 14:44:00,
2013-06-15 07:49:00,62.6,45.2,29.91,SE,135,0.0,0.0,53,0.00,,OVC016,0.00,VWS V14.01,2013-06-15 14:49:00,
2013-06-15 07:54:00,62.8,45.9,29.91,SE,135,0.0,0.0,54,0.00,,OVC016,0.00,VWS V14.01,2013-06-15 14:54:00,
2013-06-15 07:59:00,62.8,45.4,29.91,SE,135,0.0,0.0,53,0.00,,OVC016,0.00,VWS V14.01,2013-06-15 14:59:00,
2013-06-15 08:05:00,62.9,45.6,29.91,SE,134,3.1,3.1,53,0.00,,OVC016,0.00,VWS V14.01,2013-06-15 15:05:00,
2013-06-15 08:10:00,63.1,45.7,29.91,East,88,4.0,4.0,53,0.00,,OVC016,0.00,VWS V14.01,2013-06-15 15:10:00,
2013-06-15 08:16:00,63.3,45.4,29.91,ESE,107,0.0,4.0,52,0.00,,OVC016,0.00,VWS V14.01,2013-06-15 15:16:00,
2013-06-15 08:21:00,63.5,45.0,29.91,ESE,106,2.7,3.1,51,0.00,,OVC016,0.00,VWS V14.01,2013-06-15 15:21:00,
2013-06-15 08:27:00,63.7,45.2,29.91,East,96,2.2,3.1,51,0.00,,OVC016,0.00,VWS V14.01,2013-06-15 15:27:00,
2013-06-15 08:33:00,63.8,44.9,29.91,East,96,0.0,0.0,50,0.00,,OVC016,0.00,VWS V14.01,2013-06-15 15:33:00,
2013-06-15 08:38:00,64.0,45.0,29.91,East,92,2.2,4.0,50,0.00,,OVC018,0.00,VWS V14.01,2013-06-15 15:38:00,
2013-06-15 08:44:00,64.0,44.5,29.91,SE,125,0.0,2.2,49,0.00,,OVC018,0.00,VWS V14.01,2013-06-15 15:44:00,
2013-06-15 08:49:00,64.2,44.1,29.91,SE,125,0.0,0.0,48,0.00,,OVC018,0.00,VWS V14.01,2013-06-15 15:49:00,
2013-06-15 08:54:00,64.4,44.3,29.91,SE,125,0.0,0.0,48,0.00,,OVC018,0.00,VWS V14.01,2013-06-15 15:54:00,
2013-06-15 08:59:00,64.6,43.9,29.91,SE,127,3.1,3.1,47,0.00,,OVC018,0.00,VWS V14.01,2013-06-15 15:59:00,
2013-06-15 09:05:00,64.4,43.7,29.91,SE,127,0.0,0.0,47,0.00,,OVC018,0.00,VWS V14.01,2013-06-15 16:05:00,
2013-06-15 09:10:00,64.6,43.9,29.91,SE,127,0.0,0.0,47,0.00,,OVC018,0.00,VWS V14.01,2013-06-15 16:10:00,
2013-06-15 09:15:00,64.9,44.2,29.91,SE,127,0.0,0.0,47,0.00,,OVC018,0.00,VWS V14.01,2013-06-15 16:15:00,
2013-06-15 09:20:00,64.9,43.1,29.91,ENE,65,2.2,3.1,45,0.00,,OVC018,0.00,VWS V14.01,2013-06-15 16:20:00,
2013-06-15 09:26:00,65.1,43.3,29.91,ENE,65,0.0,0.0,45,0.00,,OVC018,0.00,VWS V14.01,2013-06-15 16:26:00,
2013-06-15 09:31:00,65.3,44.0,29.91,SSE,156,3.6,3.6,46,0.00,,OVC018,0.00,VWS V14.01,2013-06-15 16:31:00,
2013-06-15 09:36:00,65.3,44.0,29.91,SSW,192,0.0,0.0,46,0.00,,OVC018,0.00,VWS V14.01,2013-06-15 16:36:00,
2013-06-15 09:41:00,65.3,43.4,29.91,South,190,2.7,3.6,45,0.00,,OVC018,0.00,VWS V14.01,2013-06-15 16:41:00,
2013-06-15 09:46:00,65.1,43.3,29.91,SE,134,0.0,0.0,45,0.00,,OVC018,0.00,VWS V14.01,2013-06-15 16:46:00,
2013-06-15 09:51:00,65.5,43.6,29.91,North,9,2.2,3.6,45,0.00,,OVC018,0.00,VWS V14.01,2013-06-15 16:51:00,
2013-06-15 09:57:00,65.8,43.9,29.91,North,9,0.0,0.0,45,0.00,,OVC018,0.00,VWS V14.01,2013-06-15 16:57:00,
2013-06-15 10:02:00,66.4,43.8,29.91,SSW,210,0.0,0.0,44,0.00,,OVC018,0.00,VWS V14.01,2013-06-15 17:02:00,
2013-06-15 10:08:00,66.5,43.4,29.91,South,171,0.0,0.0,43,0.00,,OVC018,0.00,VWS V14.01,2013-06-15 17:08:00,
2013-06-15 10:13:00,66.9,43.1,29.91,South,171,0.0,0.0,42,0.00,,OVC018,0.00,VWS V14.01,2013-06-15 17:13:00,
2013-06-15 10:19:00,67.8,43.9,29.91,South,171,0.0,0.0,42,0.00,,OVC018,0.00,VWS V14.01,2013-06-15 17:19:00,
2013-06-15 10:24:00,67.4,41.0,29.91,SSW,210,4.0,4.0,38,0.00,,OVC018,0.00,VWS V14.01,2013-06-15 17:24:00,
2013-06-15 10:30:00,68.2,41.6,29.91,WSW,253,0.0,5.4,38,0.00,,OVC018,0.00,VWS V14.01,2013-06-15 17:30:00,
2013-06-15 10:36:00,68.5,41.2,29.91,WNW,289,0.0,3.6,37,0.00,,OVC018,0.00,VWS V14.01,2013-06-15 17:36:00,
2013-06-15 10:41:00,69.4,42.0,29.91,ENE,72,0.0,0.0,37,0.00,,OVC018,0.00,VWS V14.01,2013-06-15 17:41:00,
2013-06-15 10:47:00,69.6,40.8,29.91,ESE,114,2.7,3.6,35,0.00,,OVC018,0.00,VWS V14.01,2013-06-15 17:47:00,
2013-06-15 10:53:00,70.3,40.7,29.91,NE,51,0.0,0.0,34,0.00,,OVC018,0.00,VWS V14.01,2013-06-15 17:53:00,
2013-06-15 10:58:00,70.0,40.3,29.91,SSW,207,2.7,4.0,34,0.00,,OVC018,0.00,VWS V14.01,2013-06-15 17:58:00,
2013-06-15 11:04:00,69.6,40.0,29.91,South,180,3.6,4.9,34,0.00,,OVC018,0.00,VWS V14.01,2013-06-15 18:04:00,
2013-06-15 11:09:00,69.8,40.9,29.91,SSW,211,2.7,4.0,35,0.00,,OVC018,0.00,VWS V14.01,2013-06-15 18:09:00,
2013-06-15 11:14:00,69.2,40.5,29.91,South,172,5.4,5.4,35,0.00,,OVC018,0.00,VWS V14.01,2013-06-15 18:14:00,
2013-06-15 11:20:00,70.1,40.5,29.91,SSW,208,2.7,6.3,34,0.00,,OVC018,0.00,VWS V14.01,2013-06-15 18:20:00,
2013-06-15 11:26:00,70.5,40.8,29.91,SW,227,4.9,4.9,34,0.00,,OVC018,0.00,VWS V14.01,2013-06-15 18:26:00,
2013-06-15 11:31:00,71.8,40.3,29.91,WSW,240,4.9,5.8,32,0.00,,OVC018,0.00,VWS V14.01,2013-06-15 18:31:00,
2013-06-15 11:36:00,73.0,41.5,29.91,NNE,20,3.6,3.6,32,0.00,,OVC024,0.00,VWS V14.01,2013-06-15 18:36:00,
2013-06-15 11:42:00,73.0,40.6,29.91,South,191,4.9,6.3,31,0.00,,OVC024,0.00,VWS V14.01,2013-06-15 18:42:00,
2013-06-15 11:47:00,71.6,39.4,29.91,WSW,245,5.4,5.8,31,0.00,,OVC024,0.00,VWS V14.01,2013-06-15 18:47:00,
2013-06-15 11:53:00,70.9,39.6,29.91,WSW,248,2.7,8.1,32,0.00,,OVC024,0.00,VWS V14.01,2013-06-15 18:53:00,
2013-06-15 11:58:00,72.5,40.2,29.91,WSW,244,3.1,5.8,31,0.00,,OVC024,0.00,VWS V14.01,2013-06-15 18:58:00,
2013-06-15 12:04:00,74.1,39.0,29.91,SW,216,3.6,8.1,28,0.00,,OVC024,0.00,VWS V14.01,2013-06-15 19:04:00,
2013-06-15 12:10:00,74.1,38.0,29.91,SSE,165,5.4,5.4,27,0.00,,OVC024,0.00,VWS V14.01,2013-06-15 19:10:00,
2013-06-15 12:15:00,74.5,37.4,29.91,SW,219,4.5,4.5,26,0.00,,OVC024,0.00,VWS V14.01,2013-06-15 19:15:00,
2013-06-15 12:21:00,74.6,37.5,29.91,SSW,201,4.0,5.8,26,0.00,,OVC024,0.00,VWS V14.01,2013-06-15 19:21:00,
2013-06-15 12:26:00,74.1,38.0,29.91,West,276,5.4,6.3,27,0.00,,OVC024,0.00,VWS V14.01,2013-06-15 19:26:00,
2013-06-15 12:32:00,74.6,37.5,29.91,SE,139,0.0,5.8,26,0.00,,OVC024,0.00,VWS V14.01,2013-06-15 19:32:00,
2013-06-15 12:37:00,74.8,36.7,29.91,SE,139,3.1,5.4,25,0.00,,SCT024,0.00,VWS V14.01,2013-06-15 19:37:00,
2013-06-15 12:43:00,75.4,37.1,29.91,WNW,298,5.4,6.3,25,0.00,,SCT024,0.00,VWS V14.01,2013-06-15 19:43:00,
2013-06-15 12:49:00,74.8,36.7,29.91,ESE,108,6.3,8.7,25,0.00,,SCT024,0.00,VWS V14.01,2013-06-15 19:49:00,
2013-06-15 12:54:00,74.3,37.2,29.91,SW,231,5.8,5.8,26,0.00,,SCT024,0.00,VWS V14.01,2013-06-15 19:54:00,
2013-06-15 13:00:00,74.6,36.5,29.91,SSW,203,5.4,5.8,25,0.00,,SCT024,0.00,VWS V14.01,2013-06-15 20:00:00,
2013-06-15 13:06:00,74.6,36.5,29.91,South,170,3.6,5.4,25,0.00,,SCT024,0.00,VWS V14.01,2013-06-15 20:06:00,
2013-06-15 13:12:00,75.4,36.1,29.91,SSW,200,3.6,5.4,24,0.00,,SCT024,0.00,VWS V14.01,2013-06-15 20:12:00,
2013-06-15 13:17:00,74.5,36.4,29.91,West,262,3.1,8.1,25,0.00,,SCT024,0.00,VWS V14.01,2013-06-15 20:17:00,
2013-06-15 13:22:00,74.6,36.5,29.91,SSW,209,5.8,5.8,25,0.00,,SCT024,0.00,VWS V14.01,2013-06-15 20:22:00,
2013-06-15 13:27:00,75.4,36.1,29.91,SE,140,3.1,6.3,24,0.00,,SCT024,0.00,VWS V14.01,2013-06-15 20:27:00,
2013-06-15 13:32:00,75.5,35.2,29.91,SW,236,4.0,5.4,23,0.00,,SCT024,0.00,VWS V14.01,2013-06-15 20:32:00,
2013-06-15 13:37:00,75.5,35.2,29.91,SSW,197,6.3,6.7,23,0.00,,CLR,0.00,VWS V14.01,2013-06-15 20:37:00,
2013-06-15 13:42:00,75.5,36.2,29.91,SSW,195,8.7,8.7,24,0.00,,CLR,0.00,VWS V14.01,2013-06-15 20:42:00,
2013-06-15 13:48:00,75.5,34.1,29.91,South,190,5.8,6.3,22,0.00,,CLR,0.00,VWS V14.01,2013-06-15 20:48:00,
2013-06-15 13:54:00,75.0,34.7,29.91,SSW,209,5.8,8.7,23,0.00,,CLR,0.00,VWS V14.01,2013-06-15 20:54:00,
2013-06-15 14:00:00,75.2,34.9,29.91,SSW,196,7.6,7.6,23,0.00,,CLR,0.00,VWS V14.01,2013-06-15 21:00:00,
2013-06-15 14:06:00,76.3,34.7,29.91,SSW,211,5.4,8.7,22,0.00,,CLR,0.00,VWS V14.01,2013-06-15 21:06:00,
2013-06-15 14:11:00,76.3,34.7,29.91,South,172,8.3,8.3,22,0.00,,CLR,0.00,VWS V14.01,2013-06-15 21:11:00,
2013-06-15 14:17:00,76.3,34.7,29.91,SSW,208,4.9,5.8,22,0.00,,CLR,0.00,VWS V14.01,2013-06-15 21:17:00,
2013-06-15 14:22:00,76.3,34.7,29.88,SW,215,3.1,7.6,22,0.00,,CLR,0.00,VWS V14.01,2013-06-15 21:22:00,
2013-06-15 14:27:00,75.9,34.4,29.88,WSW,248,5.4,6.3,22,0.00,,CLR,0.00,VWS V14.01,2013-06-15 21:27:00,
2013-06-15 14:32:00,76.1,34.5,29.88,SSW,199,7.6,8.3,22,0.00,,CLR,0.00,VWS V14.01,2013-06-15 21:32:00,
2013-06-15 14:38:00,76.4,34.8,29.88,South,173,0.0,5.8,22,0.00,,CLR,0.00,VWS V14.01,2013-06-15 21:38:00,
2013-06-15 14:43:00,75.9,34.4,29.88,SSE,157,5.4,7.6,22,0.00,,CLR,0.00,VWS V14.01,2013-06-15 21:43:00,
2013-06-15 14:48:00,76.1,34.5,29.88,South,189,4.0,8.7,22,0.00,,CLR,0.00,VWS V14.01,2013-06-15 21:48:00,
2013-06-15 14:53:00,75.9,34.4,29.88,SSW,199,5.8,8.7,22,0.00,,CLR,0.00,VWS V14.01,2013-06-15 21:53:00,
2013-06-15 14:59:00,76.1,34.5,29.88,South,184,4.0,6.3,22,0.00,,CLR,0.00,VWS V14.01,2013-06-15 21:59:00,
2013-06-15 15:04:00,76.1,34.5,29.88,SSW,208,8.1,8.1,22,0.00,,CLR,0.00,VWS V14.01,2013-06-15 22:04:00,
2013-06-15 15:10:00,76.4,34.8,29.88,SSE,159,5.4,5.4,22,0.00,,CLR,0.00,VWS V14.01,2013-06-15 22:10:00,
2013-06-15 15:16:00,76.1,34.5,29.88,SSE,164,5.8,7.6,22,0.00,,CLR,0.00,VWS V14.01,2013-06-15 22:16:00,
2013-06-15 15:21:00,76.1,34.5,29.88,South,184,8.3,8.3,22,0.00,,CLR,0.00,VWS V14.01,2013-06-15 22:21:00,
2013-06-15 15:27:00,75.9,35.5,29.88,SW,214,4.9,6.3,23,0.00,,CLR,0.00,VWS V14.01,2013-06-15 22:27:00,
2013-06-15 15:33:00,76.3,36.9,29.88,SW,220,3.6,5.4,24,0.00,,CLR,0.00,VWS V14.01,2013-06-15 22:33:00,
2013-06-15 15:38:00,76.4,35.9,29.88,SSW,206,8.7,10.1,23,0.00,,CLR,0.00,VWS V14.01,2013-06-15 22:38:00,
2013-06-15 15:44:00,75.9,36.5,29.88,South,189,5.4,6.7,24,0.00,,CLR,0.00,VWS V14.01,2013-06-15 22:44:00,
2013-06-15 15:49:00,75.7,35.3,29.88,SSE,165,6.3,7.6,23,0.00,,CLR,0.00,VWS V14.01,2013-06-15 22:49:00,
2013-06-15 15:54:00,75.5,37.3,29.88,South,169,4.0,6.3,25,0.00,,CLR,0.00,VWS V14.01,2013-06-15 22:54:00,
2013-06-15 15:59:00,75.7,36.4,29.88,South,169,5.8,7.6,24,0.00,,CLR,0.00,VWS V14.01,2013-06-15 22:59:00,
2013-06-15 16:04:00,75.9,36.5,29.88,South,178,5.8,5.8,24,0.00,,CLR,0.00,VWS V14.01,2013-06-15 23:04:00,
2013-06-15 16:09:00,76.4,37.0,29.88,South,189,5.8,7.2,24,0.00,,CLR,0.00,VWS V14.01,2013-06-15 23:09:00,
2013-06-15 16:15:00,77.0,36.4,29.88,SSW,204,6.3,7.6,23,0.00,,CLR,0.00,VWS V14.01,2013-06-15 23:15:00,
2013-06-15 16:20:00,77.0,36.4,29.88,South,186,5.8,7.6,23,0.00,,CLR,0.00,VWS V14.01,2013-06-15 23:20:00,
2013-06-15 16:25:00,76.8,36.2,29.88,SSE,165,5.8,6.3,23,0.00,,CLR,0.00,VWS V14.01,2013-06-15 23:25:00,
2013-06-15 16:31:00,77.9,36.0,29.88,SSW,212,4.0,4.0,22,0.00,,CLR,0.00,VWS V14.01,2013-06-15 23:31:00,
2013-06-15 16:37:00,77.9,36.0,29.88,West,259,4.9,6.7,22,0.00,,CLR,0.00,VWS V14.01,2013-06-15 23:37:00,
2013-06-15 16:42:00,78.4,36.5,29.88,SSW,210,5.8,6.3,22,0.00,,CLR,0.00,VWS V14.01,2013-06-15 23:42:00,
2013-06-15 16:48:00,77.7,35.9,29.88,West,278,5.8,6.3,22,0.00,,CLR,0.00,VWS V14.01,2013-06-15 23:48:00,
2013-06-15 16:53:00,78.8,36.8,29.88,NNW,332,4.9,4.9,22,0.00,,CLR,0.00,VWS V14.01,2013-06-15 23:53:00,
2013-06-15 16:58:00,78.8,35.6,29.88,WSW,257,5.4,5.4,21,0.00,,CLR,0.00,VWS V14.01,2013-06-15 23:58:00,
2013-06-15 17:03:00,78.8,35.6,29.85,West,272,3.1,4.0,21,0.00,,CLR,0.00,VWS V14.01,2013-06-16 00:03:00,
2013-06-15 17:09:00,75.7,34.2,29.85,West,259,8.1,8.3,22,0.00,,CLR,0.00,VWS V14.01,2013-06-16 00:09:00,
2013-06-15 17:15:00,74.5,35.3,29.85,West,277,7.6,9.2,24,0.00,,CLR,0.00,VWS V14.01,2013-06-16 00:15:00,
2013-06-15 17:20:00,76.1,36.7,29.85,West,281,3.6,4.9,24,0.00,,CLR,0.00,VWS V14.01,2013-06-16 00:20:00,
2013-06-15 17:26:00,76.6,36.1,29.85,WSW,245,5.4,6.3,23,0.00,,CLR,0.00,VWS V14.01,2013-06-16 00:26:00,
2013-06-15 17:32:00,75.2,36.0,29.85,WSW,246,3.6,6.3,24,0.00,,CLR,0.00,VWS V14.01,2013-06-16 00:32:00,
2013-06-15 17:37:00,73.7,36.8,29.85,WSW,241,4.9,8.1,26,0.00,,CLR,0.00,VWS V14.01,2013-06-16 00:37:00,
2013-06-15 17:43:00,73.7,36.8,29.85,WNW,303,5.8,8.3,26,0.00,,CLR,0.00,VWS V14.01,2013-06-16 00:43:00,
2013-06-15 17:48:00,74.5,37.4,29.85,NW,315,6.3,8.3,26,0.00,,CLR,0.00,VWS V14.01,2013-06-16 00:48:00,
2013-06-15 17:54:00,73.4,37.4,29.85,NNW,335,7.6,8.3,27,0.00,,CLR,0.00,VWS V14.01,2013-06-16 00:54:00,
2013-06-15 18:00:00,73.0,39.8,29.85,NNW,333,5.4,5.8,30,0.00,,CLR,0.00,VWS V14.01,2013-06-16 01:00:00,
2013-06-15 18:05:00,72.1,39.0,29.85,West,262,5.4,8.7,30,0.00,,CLR,0.00,VWS V14.01,2013-06-16 01:05:00,
2013-06-15 18:11:00,73.0,40.6,29.85,WNW,294,6.3,6.3,31,0.00,,CLR,0.00,VWS V14.01,2013-06-16 01:11:00,
2013-06-15 18:16:00,71.9,39.7,29.85,West,270,6.3,8.3,31,0.00,,CLR,0.00,VWS V14.01,2013-06-16 01:16:00,
2013-06-15 18:22:00,71.0,39.7,29.85,WNW,288,6.3,8.1,32,0.00,,CLR,0.00,VWS V14.01,2013-06-16 01:22:00,
2013-06-15 18:27:00,70.7,39.4,29.85,West,278,8.3,9.6,32,0.00,,CLR,0.00,VWS V14.01,2013-06-16 01:27:00,
2013-06-15 18:33:00,69.8,38.6,29.85,West,261,6.3,8.1,32,0.00,,CLR,0.00,VWS V14.01,2013-06-16 01:33:00,
2013-06-15 18:38:00,70.1,39.7,29.85,WSW,239,7.6,8.3,33,0.00,,CLR,0.00,VWS V14.01,2013-06-16 01:38:00,
2013-06-15 18:43:00,70.3,39.9,29.85,West,260,8.1,8.1,33,0.00,,CLR,0.00,VWS V14.01,2013-06-16 01:43:00,
2013-06-15 18:49:00,69.1,39.5,29.85,WSW,258,8.1,8.3,34,0.00,,CLR,0.00,VWS V14.01,2013-06-16 01:49:00,
2013-06-15 18:54:00,69.6,40.0,29.85,NW,305,6.3,6.3,34,0.00,,CLR,0.00,VWS V14.01,2013-06-16 01:54:00,
2013-06-15 19:00:00,69.2,40.5,29.85,WSW,257,8.3,8.3,35,0.00,,CLR,0.00,VWS V14.01,2013-06-16 02:00:00,
2013-06-15 19:05:00,68.9,40.9,29.88,West,270,5.4,6.3,36,0.00,,CLR,0.00,VWS V14.01,2013-06-16 02:05:00,
2013-06-15 19:11:00,68.5,40.5,29.88,West,280,6.3,8.1,36,0.00,,CLR,0.00,VWS V14.01,2013-06-16 02:11:00,
2013-06-15 19:17:00,68.9,40.9,29.88,NW,310,4.0,6.3,36,0.00,,CLR,0.00,VWS V14.01,2013-06-16 02:17:00,
2013-06-15 19:22:00,68.7,40.0,29.88,West,277,5.8,8.1,35,0.00,,CLR,0.00,VWS V14.01,2013-06-16 02:22:00,
2013-06-15 19:28:00,67.4,41.0,29.88,West,260,8.3,8.3,38,0.00,,CLR,0.00,VWS V14.01,2013-06-16 02:28:00,
2013-06-15 19:33:00,67.3,42.1,29.88,NW,319,4.0,8.3,40,0.00,,CLR,0.00,VWS V14.01,2013-06-16 02:33:00,
2013-06-15 19:39:00,67.3,42.1,29.88,West,259,4.9,5.8,40,0.00,,CLR,0.00,VWS V14.01,2013-06-16 02:39:00,
2013-06-15 19:45:00,66.9,42.5,29.88,WSW,247,5.4,8.3,41,0.00,,CLR,0.00,VWS V14.01,2013-06-16 02:45:00,
2013-06-15 19:50:00,66.5,42.1,29.88,WSW,247,8.1,8.7,41,0.00,,CLR,0.00,VWS V14.01,2013-06-16 02:50:00,
2013-06-15 19:56:00,66.4,42.6,29.88,West,278,6.3,6.3,42,0.00,,CLR,0.00,VWS V14.01,2013-06-16 02:56:00,
2013-06-15 20:01:00,66.2,42.4,29.88,NW,321,5.4,5.4,42,0.00,,CLR,0.00,VWS V14.01,2013-06-16 03:01:00,
2013-06-15 20:07:00,65.8,42.7,29.88,NW,304,6.3,7.6,43,0.00,,CLR,0.00,VWS V14.01,2013-06-16 03:07:00,
2013-06-15 20:13:00,65.6,43.2,29.88,WSW,238,2.7,3.6,44,0.00,,CLR,0.00,VWS V14.01,2013-06-16 03:13:00,
2013-06-15 20:18:00,65.5,43.0,29.88,West,278,3.6,6.7,44,0.00,,CLR,0.00,VWS V14.01,2013-06-16 03:18:00,
2013-06-15 20:24:00,65.1,43.3,29.88,WNW,289,5.4,7.6,45,0.00,,CLR,0.00,VWS V14.01,2013-06-16 03:24:00,
2013-06-15 20:29:00,64.9,43.7,29.88,West,262,4.0,5.8,46,0.00,,CLR,0.00,VWS V14.01,2013-06-16 03:29:00,
2013-06-15 20:35:00,64.6,43.3,29.88,WSW,245,6.3,6.3,46,0.00,,CLR,0.00,VWS V14.01,2013-06-16 03:35:00,
2013-06-15 20:41:00,64.4,43.7,29.88,West,266,6.3,6.3,47,0.00,,CLR,0.00,VWS V14.01,2013-06-16 03:41:00,
2013-06-15 20:46:00,64.4,43.7,29.88,West,272,4.0,6.3,47,0.00,,CLR,0.00,VWS V14.01,2013-06-16 03:46:00,
2013-06-15 20:51:00,64.2,43.6,29.88,WNW,283,3.6,5.4,47,0.00,,CLR,0.00,VWS V14.01,2013-06-16 03:51:00,
2013-06-15 20:56:00,64.2,44.1,29.88,West,260,5.8,5.8,48,0.00,,CLR,0.00,VWS V14.01,2013-06-16 03:56:00,
2013-06-15 21:01:00,64.2,44.1,29.88,West,276,2.7,3.6,48,0.00,,CLR,0.00,VWS V14.01,2013-06-16 04:01:00,
2013-06-15 21:03:00,64.2,44.1,29.88,WSW,245,5.4,5.8,48,0.00,,CLR,0.00,VWS V14.01,2013-06-16 04:03:00,
2013-06-15 21:04:00,64.2,44.1,29.88,WSW,256,3.6,5.4,48,0.00,,CLR,0.00,VWS V14.01,2013-06-16 04:04:00,
2013-06-15 21:05:00,64.2,44.1,29.88,WSW,248,5.4,5.8,48,0.00,,CLR,0.00,VWS V14.01,2013-06-16 04:05:00,
2013-06-15 21:09:00,64.2,44.7,29.88,West,261,3.6,5.4,49,0.00,,CLR,0.00,VWS V14.01,2013-06-16 04:09:00,
2013-06-15 21:14:00,64.0,45.5,29.88,WSW,258,4.9,5.8,51,0.00,,CLR,0.00,VWS V14.01,2013-06-16 04:14:00,
2013-06-15 21:20:00,64.0,46.1,29.88,WNW,295,3.6,4.0,52,0.00,,CLR,0.00,VWS V14.01,2013-06-16 04:20:00,
2013-06-15 21:25:00,64.0,46.6,29.88,NW,326,3.1,4.0,53,0.00,,CLR,0.00,VWS V14.01,2013-06-16 04:25:00,
2013-06-15 21:30:00,63.8,46.4,29.88,WNW,294,3.1,4.0,53,0.00,,CLR,0.00,VWS V14.01,2013-06-16 04:30:00,
2013-06-15 21:35:00,63.8,46.4,29.91,WNW,294,2.7,3.1,53,0.00,,CLR,0.00,VWS V14.01,2013-06-16 04:35:00,
2013-06-15 21:41:00,63.7,46.2,29.91,NNW,333,2.7,4.0,53,0.00,,CLR,0.00,VWS V14.01,2013-06-16 04:41:00,
2013-06-15 21:46:00,63.5,46.6,29.91,NNW,328,3.1,3.1,54,0.00,,CLR,0.00,VWS V14.01,2013-06-16 04:46:00,
2013-06-15 21:52:00,63.5,46.6,29.91,West,266,3.1,5.8,54,0.00,,CLR,0.00,VWS V14.01,2013-06-16 04:52:00,
2013-06-15 21:57:00,63.3,46.4,29.91,West,265,3.1,3.1,54,0.00,,CLR,0.00,VWS V14.01,2013-06-16 04:57:00,
2013-06-15 22:02:00,63.3,46.9,29.91,NNW,327,4.9,4.9,55,0.00,,CLR,0.00,VWS V14.01,2013-06-16 05:02:00,
2013-06-15 22:07:00,63.1,46.7,29.91,NNW,332,3.1,3.6,55,0.00,,CLR,0.00,VWS V14.01,2013-06-16 05:07:00,
2013-06-15 22:13:00,63.1,47.2,29.91,WNW,284,2.2,3.1,56,0.00,,CLR,0.00,VWS V14.01,2013-06-16 05:13:00,
2013-06-15 22:19:00,63.1,47.7,29.91,NW,305,4.9,4.9,57,0.00,,CLR,0.00,VWS V14.01,2013-06-16 05:19:00,
2013-06-15 22:24:00,62.9,48.0,29.91,NW,304,0.0,0.0,58,0.00,,CLR,0.00,VWS V14.01,2013-06-16 05:24:00,
2013-06-15 22:29:00,62.9,48.0,29.91,NW,307,3.1,4.0,58,0.00,,CLR,0.00,VWS V14.01,2013-06-16 05:29:00,
2013-06-15 22:34:00,62.9,48.4,29.91,West,276,3.1,3.6,59,0.00,,CLR,0.00,VWS V14.01,2013-06-16 05:34:00,
2013-06-15 22:40:00,62.8,48.2,29.91,WNW,294,4.0,4.0,59,0.00,,CLR,0.00,VWS V14.01,2013-06-16 05:40:00,
2013-06-15 22:45:00,62.8,48.7,29.91,WNW,286,2.2,3.6,60,0.00,,CLR,0.00,VWS V14.01,2013-06-16 05:45:00,
2013-06-15 22:51:00,62.6,48.5,29.94,NW,310,0.0,3.1,60,0.00,,CLR,0.00,VWS V14.01,2013-06-16 05:51:00,
2013-06-15 22:57:00,62.4,48.3,29.94,NNW,343,2.7,2.7,60,0.00,,CLR,0.00,VWS V14.01,2013-06-16 05:57:00,
2013-06-15 23:02:00,62.4,48.3,29.94,NW,308,0.0,0.0,60,0.00,,CLR,0.00,VWS V14.01,2013-06-16 06:02:00,
2013-06-15 23:08:00,62.2,48.6,29.94,NW,315,0.0,0.0,61,0.00,,CLR,0.00,VWS V14.01,2013-06-16 06:08:00,
2013-06-15 23:13:00,62.0,48.5,29.94,NW,322,2.7,3.6,61,0.00,,CLR,0.00,VWS V14.01,2013-06-16 06:13:00,
2013-06-15 23:18:00,62.0,48.5,29.94,NNW,339,2.7,2.7,61,0.00,,CLR,0.00,VWS V14.01,2013-06-16 06:18:00,
2013-06-15 23:24:00,61.9,48.7,29.94,NW,321,0.0,0.0,62,0.00,,CLR,0.00,VWS V14.01,2013-06-16 06:24:00,
2013-06-15 23:29:00,61.9,48.7,29.94,NW,321,0.0,0.0,62,0.00,,CLR,0.00,VWS V14.01,2013-06-16 06:29:00,
2013-06-15 23:34:00,61.7,48.5,29.91,NW,321,0.0,0.0,62,0.00,,CLR,0.00,VWS V14.01,2013-06-16 06:34:00,
2013-06-15 23:39:00,61.7,48.5,29.91,NW,321,0.0,0.0,62,0.00,,CLR,0.00,VWS V14.01,2013-06-16 06:39:00,
2013-06-15 23:45:00,61.5,48.8,29.91,NW,321,0.0,0.0,63,0.00,,CLR,0.00,VWS V14.01,2013-06-16 06:45:00,
2013-06-15 23:50:00,61.5,48.8,29.91,NW,321,0.0,0.0,63,0.00,,CLR,0.00,VWS V14.01,2013-06-16 06:50:00,
2013-06-15 23:55:00,61.3,48.6,29.91,North,353,2.7,2.7,63,0.00,,CLR,0.00,VWS V14.01,2013-06-16 06:55:00,